This is the latest recevied weather packets stored in our database for station/object KL4TQ. If no packets are shown the sender has not sent any weather packets the latest 10 day(s).
| Time | Temp. | Humidity | Pressure | Rain* | Wind** | Luminosity | Snow |
|---|---|---|---|---|---|---|---|
| 1777765869 | 7.78° C | 56% | 857 hPa | 0 mm | - | 406 W/m² | - |
| 1777765568 | 8.33° C | 52% | 857 hPa | 0 mm | - | 283 W/m² | - |
| 1777765268 | 8.33° C | 52% | 857 hPa | 0 mm | - | 431 W/m² | - |
| 1777764968 | 8.33° C | 51% | 857 hPa | 0 mm | - | 293 W/m² | - |
| 1777764668 | 8.89° C | 52% | 857 hPa | 0 mm | - | 304 W/m² | - |
| 1777764369 | 8.89° C | 49% | 857 hPa | 0 mm | - | 292 W/m² | - |
| 1777764069 | 8.89° C | 48% | 858 hPa | 0 mm | - | 926 W/m² | - |
| 1777763769 | 8.89° C | 48% | 858 hPa | 0 mm | - | 573 W/m² | - |
| 1777763468 | 8.33° C | 48% | 857 hPa | 0 mm | - | 577 W/m² | - |
| 1777763168 | 8.89° C | 47% | 857 hPa | 0 mm | - | 371 W/m² | - |
| 1777762869 | 8.89° C | 46% | 857 hPa | 0 mm | - | 399 W/m² | - |
| 1777762569 | 8.89° C | 46% | 857 hPa | 0 mm | - | 399 W/m² | - |
| 1777762269 | 8.33° C | 47% | 857 hPa | 0 mm | - | 374 W/m² | - |
| 1777761968 | 8.33° C | 46% | 857 hPa | 0 mm | - | 350 W/m² | - |
| 1777761669 | 8.89° C | 46% | 857 hPa | 0 mm | - | 338 W/m² | - |
| 1777761368 | 8.89° C | 44% | 857 hPa | 0 mm | - | 385 W/m² | - |
| 1777761069 | 9.44° C | 45% | 858 hPa | 0 mm | - | 672 W/m² | - |
| 1777760768 | 9.44° C | 45% | 858 hPa | 0 mm | - | 719 W/m² | - |
| 1777760468 | 8.89° C | 45% | 857 hPa | 0 mm | - | 565 W/m² | - |
| 1777760168 | 8.33° C | 46% | 857 hPa | 0 mm | - | 344 W/m² | - |
| 1777759869 | 8.33° C | 46% | 857 hPa | 0 mm | - | 355 W/m² | - |
| 1777759569 | 8.89° C | 45% | 857 hPa | 0 mm | - | 376 W/m² | - |
| 1777759268 | 8.89° C | 46% | 857 hPa | 0 mm | - | 446 W/m² | - |
| 1777758969 | 8.33° C | 45% | 857 hPa | 0 mm | - | 372 W/m² | - |
| 1777758668 | 8.89° C | 46% | 857 hPa | 0 mm | - | 418 W/m² | - |
* Rain latest hour (hover to see other rain measurements)
** Current wind speed in m/s (hover to see current wind gust speed)